EW8824 Weather Reports


time (UTC)temp
C
wind
direction
speed
KPH
gust
KPH
rain 1hr
cm
rain 24hr
cm
rain mn
cm
humidity
%
barometer
mb
20260906095604 22 19 3.2 9.7 0.00 0.84 0.00 93 1013.8
20260906095102 22 17 1.6 6.4 0.00 0.84 0.00 93 1013.7
20260906094600 22 31 1.6 6.4 0.00 0.84 0.00 93 1013.6
20260906094105 22 44 3.2 4.8 0.00 0.84 0.00 93 1013.6
20260906093602 22 5 3.2 4.8 0.00 0.84 0.00 93 1013.6
20260906093101 22 0 1.6 6.4 0.00 0.84 0.00 93 1013.6
20260906092601 22 333 3.2 6.4 0.00 0.84 0.00 93 1013.7
20260906092100 22 13 1.6 4.8 0.00 0.84 0.00 93 1013.6
20260906091601 22 13 0.0 4.8 0.00 0.84 0.00 93 1013.6
20260906091101 22 13 1.6 4.8 0.00 0.84 0.00 93 1013.6
20260906090602 22 39 1.6 3.2 0.00 0.84 0.00 93 1013.5
20260906090432 22 44 0.0 3.2 0.00 0.84 0.00 93 1013.5
20260906085601 22 44 0.0 3.2 0.00 0.84 0.00 93 1013.5
20260906085102 22 44 1.6 3.2 0.00 0.84 0.00 93 1013.4
20260906084603 22 44 0.0 3.2 0.00 0.84 0.00 93 1013.5
20260906084420 22 44 0.0 4.8 0.00 0.84 0.00 93 1013.5
20260906083604 22 44 1.6 6.4 0.00 0.84 0.00 93 1013.4
20260906083103 22 34 3.2 6.4 0.00 0.84 0.00 93 1013.3
20260906082815 22 34 0.0 4.8 0.00 0.84 0.00 93 1013.4
20260906082716 22 34 0.0 3.2 0.00 0.84 0.00 93 1013.3
20260906081607 22 34 1.6 4.8 0.00 0.84 0.00 93 1013.3
20260906081103 22 34 1.6 6.4 0.00 0.84 0.00 93 1013.3
20260906080559 22 0 1.6 6.4 0.00 0.84 0.00 94 1013.4
20260906080056 21 9 1.6 6.4 0.00 0.84 0.00 93 1013.3
20260906075553 21 347 0.0 3.2 0.00 0.84 0.00 93 1013.3
20260906075043 21 347 0.0 3.2 0.00 0.84 0.00 93 1013.3
20260906074529 21 347 0.0 1.6 0.00 0.84 0.00 93 1013.2
20260906074029 21 347 0.0 3.2 0.00 0.84 0.00 93 1013.1
20260906073536 21 347 1.6 3.2 0.00 0.84 0.00 93 1013.3
20260906073353 21 347 0.0 0.0 0.00 0.84 0.00 92 1013.2
20260906072854 21 347 0.0 0.0 0.00 0.84 0.00 92 1013.2
20260906072344 21 347 0.0 1.6 0.00 0.84 0.00 92 1013.3
20260906071528 21 347 0.0 4.8 0.00 0.84 0.00 93 1013.4
20260906071355 21 347 1.6 4.8 0.00 0.84 0.00 93 1013.4
20260906070855 21 347 0.0 0.0 0.00 0.84 0.00 93 1013.5
20260906070021 21 347 0.0 0.0 0.00 0.84 0.00 93 1013.5
20260906065509 21 347 0.0 0.0 0.00 0.84 0.00 92 1013.5
20260906065006 21 347 0.0 0.0 0.00 0.84 0.00 92 1013.4
20260906064506 21 347 0.0 0.0 0.00 0.84 0.00 92 1013.4
20260906064145 22 347 0.0 0.0 0.00 0.84 0.00 92 1013.4
20260906064108 21 347 0.0 0.0 0.00 0.84 0.00 92 1013.3
20260906063000 22 347 0.0 0.0 0.00 0.84 0.00 92 1013.3
20260906062500 22 347 0.0 0.0 0.00 0.84 0.00 92 1013.3
20260906062220 22 347 0.0 0.0 0.00 0.84 0.00 92 1013.6
20260906062129 22 347 0.0 0.0 0.00 0.84 0.00 92 1013.4
20260906061005 22 347 0.0 0.0 0.00 0.84 0.00 92 1013.7
20260906060847 22 347 0.0 0.0 0.00 0.84 0.00 92 1013.7
20260906060001 22 347 0.0 0.0 0.00 0.84 0.00 93 1013.8
20260906055501 22 347 0.0 0.0 0.00 0.84 0.00 92 1013.7
20260906055003 22 347 0.0 0.0 0.00 0.84 0.00 92 1013.8
20260906054819 22 347 0.0 0.0 0.00 0.84 0.00 92 1013.8
20260906054319 22 347 0.0 0.0 0.00 0.84 0.00 92 1013.8
20260906053504 22 347 0.0 3.2 0.00 0.84 0.00 93 1013.8
20260906053002 22 347 1.6 4.8 0.00 0.84 0.00 92 1013.8
20260906052502 22 347 3.2 4.8 0.00 0.84 0.00 92 1013.8
20260906052323 22 347 1.6 3.2 0.00 0.84 0.00 92 1013.8
20260906051501 22 347 1.6 3.2 0.00 0.84 0.00 92 1013.7
20260906051005 22 347 0.0 0.0 0.00 0.84 0.00 92 1013.6
20260906050504 22 347 0.0 0.0 0.00 0.84 0.00 92 1013.7
20260906050004 22 347 0.0 0.0 0.00 0.84 0.00 91 1013.7
20260906045829 22 347 0.0 0.0 0.00 0.84 0.00 91 1013.7
20260906045006 22 347 0.0 0.0 0.00 0.84 0.00 91 1013.6
20260906044502 22 347 0.0 0.0 0.00 0.84 0.00 91 1013.6
20260906044002 22 347 0.0 0.0 0.00 0.84 0.00 91 1013.6
20260906043832 22 347 0.0 0.0 0.00 0.84 0.00 91 1013.6
20260906043004 22 347 0.0 0.0 0.00 0.84 0.00 92 1013.6
20260906042501 22 347 0.0 0.0 0.00 0.84 0.00 91 1013.5
20260906042002 22 347 0.0 1.6 0.00 0.84 0.00 91 1013.4
20260906041502 23 347 0.0 1.6 0.00 0.84 0.00 91 1013.3
20260906041004 23 347 0.0 0.0 0.00 0.84 0.00 91 1013.2
20260906040503 23 347 0.0 1.6 0.00 0.84 0.00 91 1013.2
20260906040002 23 347 0.0 3.2 0.00 0.84 0.00 91 1013.1
20260906035502 23 347 0.0 3.2 0.00 0.84 0.84 91 1013.1
20260906035003 23 347 0.0 0.0 0.00 0.84 0.84 91 1013.2
20260906034502 23 347 0.0 3.2 0.00 0.84 0.84 91 1013.2
20260906034002 23 347 1.6 4.8 0.00 0.84 0.84 92 1013.3
20260906033501 23 347 3.2 4.8 0.00 0.84 0.84 92 1013.3
20260906033002 23 5 1.6 4.8 0.00 0.84 0.84 91 1013.3
20260906032501 23 132 0.0 0.0 0.00 0.84 0.84 91 1013.2
20260906032001 23 132 0.0 0.0 0.00 0.84 0.84 91 1013.1
20260906031502 23 132 0.0 0.0 0.00 0.84 0.84 91 1013.1
20260906031003 23 132 0.0 0.0 0.00 0.84 0.84 91 1013.1
20260906030502 23 132 0.0 0.0 0.00 0.84 0.84 90 1013.0
20260906030005 23 132 0.0 0.0 0.00 0.84 0.84 90 1012.9
20260906025821 23 132 0.0 0.0 0.00 0.84 0.84 90 1012.9
20260906025001 23 132 0.0 0.0 0.00 0.84 0.84 89 1012.9
20260906024502 23 132 0.0 0.0 0.00 0.84 0.84 90 1012.9
20260906024002 23 132 0.0 0.0 0.00 0.84 0.84 89 1012.9
20260906023501 23 132 0.0 0.0 0.00 0.84 0.84 89 1012.9
20260906023001 23 132 0.0 0.0 0.00 0.84 0.84 89 1012.9
20260906022504 23 132 0.0 0.0 0.00 0.84 0.84 89 1012.9
20260906022323 23 132 0.0 0.0 0.00 0.84 0.84 88 1012.7
20260906021501 23 132 0.0 0.0 0.00 0.84 0.84 88 1012.7
20260906021024 24 132 0.0 0.0 0.00 0.84 0.84 88 1012.6
20260906021017 23 132 0.0 0.0 0.00 0.84 0.84 88 1012.6
20260906021003 23 132 0.0 0.0 0.00 0.84 0.84 88 1012.6
20260906015450 24 132 0.0 0.0 0.00 0.84 0.84 88 1012.7
20260906014941 24 132 0.0 0.0 0.00 0.84 0.84 87 1012.6
20260906014432 24 132 0.0 0.0 0.00 0.84 0.84 87 1012.5
20260906013926 24 132 0.0 0.0 0.00 0.84 0.84 87 1012.5
20260906013426 24 132 0.0 0.0 0.00 0.84 0.84 87 1012.4
20260906012922 24 132 0.0 0.0 0.00 0.84 0.84 87 1012.4
20260906012407 25 132 0.0 0.0 0.00 0.84 0.84 86 1012.5
20260906011904 25 132 0.0 0.0 0.00 0.84 0.84 85 1012.4
20260906011404 25 132 0.0 0.0 0.00 0.84 0.84 85 1012.3
20260906010903 25 132 0.0 0.0 0.00 0.84 0.84 85 1012.3
20260906010403 25 132 0.0 0.0 0.00 0.84 0.84 85 1012.1
20260906005907 25 132 0.0 0.0 0.00 0.84 0.84 84 1012.1
20260906005725 25 132 0.0 0.0 0.00 0.84 0.84 84 1012.1
20260906004903 25 132 0.0 0.0 0.00 0.84 0.84 84 1012.0
20260906004404 26 132 0.0 0.0 0.00 0.84 0.84 84 1012.2
20260906003905 26 132 0.0 0.0 0.00 0.84 0.84 83 1012.2
20260906003403 26 132 0.0 0.0 0.00 0.84 0.84 82 1012.3
20260906002902 26 132 0.0 0.0 0.00 0.84 0.84 82 1012.2
20260906002404 26 132 0.0 0.0 0.00 0.84 0.84 81 1012.4
20260906001902 27 132 0.0 0.0 0.00 0.84 0.84 80 1012.4
20260906001721 27 132 0.0 0.0 0.00 0.84 0.84 79 1012.5
20260906001218 27 132 0.0 0.0 0.00 0.84 0.84 78 1012.5
20260906000719 28 132 0.0 0.0 0.00 0.84 0.84 78 1012.6
20260905235903 28 132 0.0 1.6 0.00 0.84 0.84 76 1012.7
20260905235402 28 132 0.0 4.8 0.00 0.84 0.84 77 1012.7
20260905235221 28 132 3.2 6.4 0.00 0.84 0.84 75 1012.6
20260905234402 29 294 3.2 6.4 0.00 0.84 0.84 73 1012.6
20260905233904 29 114 3.2 6.4 0.00 0.84 0.84 73 1012.7
20260905233731 30 0 1.6 6.4 0.00 0.84 0.84 75 1012.9
20260905233236 30 13 4.8 6.4 0.00 0.84 0.84 74 1012.6
20260905232402 30 120 1.6 11.3 0.00 0.84 0.84 73 1012.6
20260905231902 30 15 6.4 11.3 0.00 0.84 0.84 73 1012.8
20260905231403 31 96 6.4 11.3 0.00 0.84 0.84 75 1012.8
20260905230902 31 51 1.6 12.9 0.00 0.84 0.84 75 1012.8
20260905230607 31 5 4.8 19.3 0.00 0.84 0.84 74 1012.7
20260905230516 31 33 3.2 12.9 0.00 0.84 0.84 74 1012.8
20260905225739 32 14 4.8 19.3 0.00 0.84 0.84 71 1012.6
20260905224901 32 355 1.6 8.0 0.00 0.84 0.84 77 1012.8
20260905224400 32 344 0.0 1.6 0.00 0.84 0.84 75 1012.7
20260905223901 31 344 0.0 1.6 0.00 0.84 0.84 77 1012.5
20260905223403 31 344 0.0 3.2 0.00 0.84 0.84 79 1012.5
20260905222901 30 344 1.6 3.2 0.00 0.84 0.84 80 1012.5
20260905222401 30 344 0.0 3.2 0.00 0.84 0.84 80 1012.5
20260905221900 30 344 1.6 3.2 0.00 0.84 0.84 82 1012.4
20260905221400 30 344 0.0 3.2 0.00 0.84 0.84 81 1012.5
20260905220902 30 344 0.0 3.2 0.00 0.84 0.84 80 1012.4
20260905220404 30 344 0.0 8.0 0.00 0.84 0.84 80 1012.3
20260905215902 30 344 4.8 12.9 0.00 0.84 0.84 77 1012.2
20260905215402 30 336 8.0 16.1 0.00 0.84 0.84 78 1012.3
20260905214902 31 0 4.8 16.1 0.00 0.84 0.84 77 1012.5
20260905214402 31 349 3.2 11.3 0.00 0.84 0.84 78 1012.4
20260905213902 31 5 0.0 1.6 0.00 0.84 0.84 80 1012.4
20260905213402 31 5 0.0 0.0 0.00 0.84 0.84 77 1012.5
20260905213104 31 5 0.0 3.2 0.00 0.84 0.84 74 1012.6
20260905213014 31 5 0.0 0.0 0.00 0.84 0.84 76 1012.6
20260905211902 32 5 1.6 3.2 0.00 0.84 0.84 73 1012.5
20260905211400 32 5 1.6 3.2 0.00 0.84 0.84 72 1012.7
20260905210903 33 5 1.6 3.2 0.00 0.84 0.84 72 1012.7
20260905210402 33 5 1.6 4.8 0.00 0.84 0.84 70 1012.5
20260905205901 34 5 1.6 4.8 0.00 0.84 0.84 70 1012.4
20260905205401 34 355 3.2 4.8 0.00 0.84 0.84 67 1012.7
20260905204900 35 30 3.2 6.4 0.00 0.84 0.84 68 1012.6
20260905204401 35 107 3.2 6.4 0.00 0.84 0.84 62 1012.6
20260905203901 35 167 3.2 6.4 0.00 0.84 0.84 64 1012.6
20260905203401 35 167 4.8 6.4 0.00 0.84 0.84 62 1012.6
20260905202901 35 124 3.2 6.4 0.00 0.84 0.84 60 1012.7
20260905202621 35 80 1.6 4.8 0.00 0.84 0.84 61 1013.0
20260905202518 35 80 1.6 4.8 0.00 0.84 0.84 64 1012.8
20260905201739 35 123 0.0 4.8 0.00 0.84 0.84 63 1013.1
20260905200903 35 123 3.2 6.4 0.00 0.84 0.84 65 1013.0
20260905200403 35 123 3.2 6.4 0.00 0.84 0.84 65 1013.2
20260905195902 35 130 0.0 6.4 0.00 0.84 0.84 64 1013.3
20260905195403 35 108 3.2 6.4 0.00 0.84 0.84 61 1013.4
20260905194904 35 151 3.2 6.4 0.00 0.84 0.84 64 1013.4
20260905194830 35 80 3.2 4.8 0.00 0.84 0.84 64 1013.5
20260905194451 35 34 1.6 4.8 0.00 0.84 0.84 62 1013.4
20260905194423 35 45 3.2 6.4 0.00 0.84 0.84 63 1013.4
20260905192903 35 355 1.6 4.8 0.00 0.84 0.84 66 1013.6
20260905192404 35 109 1.6 9.7 0.00 0.84 0.84 63 1013.5
20260905191958 35 347 0.0 6.4 0.00 0.84 0.84 62 1013.8
20260905191951 35 104 3.2 6.4 0.00 0.84 0.84 61 1013.7
20260905191929 35 140 3.2 9.7 0.00 0.84 0.84 62 1013.6
20260905190403 35 347 1.6 6.4 0.00 0.84 0.84 62 1014.1
20260905185902 34 153 1.6 9.7 0.00 0.84 0.84 62 1014.1
20260905185403 34 170 6.4 9.7 0.00 0.84 0.84 62 1014.2
20260905184903 34 167 3.2 8.0 0.00 0.84 0.84 65 1014.3
20260905184405 34 188 3.2 8.0 0.00 0.84 0.84 63 1014.3
20260905184231 34 175 3.2 6.4 0.00 0.84 0.84 65 1014.3
20260905183403 34 148 3.2 6.4 0.00 0.84 0.84 65 1014.4
20260905182901 33 351 1.6 9.7 0.00 0.84 0.84 63 1014.6
20260905182403 33 52 6.4 9.7 0.00 0.84 0.84 63 1014.7
20260905181901 33 144 1.6 6.4 0.00 0.84 0.84 63 1014.7
20260905181400 33 101 1.6 6.4 0.00 0.84 0.84 65 1014.8
20260905180902 33 173 4.8 9.7 0.00 0.84 0.84 63 1014.8
20260905180733 33 173 1.6 9.7 0.00 0.84 0.84 64 1014.8
20260905180233 33 157 3.2 8.0 0.00 0.84 0.84 66 1014.7
20260905175402 33 136 1.6 9.7 0.00 0.84 0.84 66 1014.8
20260905174900 33 192 4.8 9.7 0.00 0.84 0.84 64 1014.7
20260905174403 33 238 1.6 4.8 0.00 0.84 0.84 69 1014.8
20260905173905 33 93 1.6 11.3 0.00 0.84 0.84 65 1014.9
20260905173724 32 175 3.2 11.3 0.00 0.84 0.84 68 1014.8
20260905173212 32 109 3.2 9.7 0.00 0.84 0.84 67 1014.9
20260905172341 32 213 4.8 9.7 0.00 0.84 0.84 68 1015.1
20260905172203 32 127 1.6 12.9 0.00 0.84 0.84 69 1015.0
20260905171330 32 141 8.0 12.9 0.00 0.84 0.84 69 1014.8
20260905170830 32 215 3.2 14.5 0.00 0.84 0.84 69 1014.9
20260905170700 32 153 8.0 14.5 0.00 0.84 0.84 68 1015.0
20260905165828 32 128 6.4 12.9 0.00 0.84 0.84 68 1015.0
20260905165329 32 147 6.4 19.3 0.00 0.84 0.84 66 1015.0
20260905164828 32 131 8.0 19.3 0.00 0.84 0.84 68 1015.0
20260905164328 32 195 4.8 12.9 0.00 0.84 0.84 70 1015.0
20260905163829 32 144 8.0 14.5 0.00 0.84 0.84 70 1015.0
20260905163330 31 144 6.4 14.5 0.00 0.84 0.84 71 1015.0
20260905162829 31 157 6.4 12.9 0.00 0.84 0.84 69 1015.1
20260905162331 31 174 6.4 12.9 0.00 0.84 0.84 69 1015.2
20260905161827 31 174 6.4 11.3 0.00 0.84 0.84 74 1015.2
20260905161322 31 155 8.0 14.5 0.00 0.84 0.84 71 1015.3
20260905161156 31 156 8.0 17.7 0.00 0.84 0.84 71 1015.3
20260905160317 31 131 12.9 17.7 0.00 0.84 0.84 70 1015.2
20260905155817 31 161 6.4 17.7 0.00 0.84 0.84 71 1015.3
20260905155309 31 119 4.8 16.1 0.00 0.84 0.84 71 1015.3
20260905154809 30 129 11.3 16.1 0.00 0.84 0.84 71 1015.4
20260905154304 31 147 9.7 14.5 0.00 0.84 0.84 71 1015.6
20260905153802 30 188 8.0 12.9 0.00 0.84 0.84 72 1015.4
20260905153303 30 136 3.2 12.9 0.00 0.84 0.84 75 1015.4
20260905152802 30 102 6.4 17.7 0.00 0.84 0.84 74 1015.2
20260905152305 30 116 3.2 19.3 0.00 0.84 0.84 75 1015.4
20260905151802 30 125 9.7 19.3 0.00 0.84 0.84 73 1015.3
20260905151300 29 130 8.0 17.7 0.00 0.84 0.84 75 1015.4
20260905150800 29 105 6.4 14.5 0.00 0.84 0.84 75 1015.7
20260905150301 29 55 4.8 14.5 0.00 0.84 0.84 74 1015.6
20260905145800 29 140 6.4 14.5 0.00 0.84 0.84 76 1015.6
20260905145638 28 181 3.2 14.5 0.00 0.84 0.84 77 1015.6
20260905145137 28 69 6.4 14.5 0.00 0.84 0.84 76 1015.4
20260905144301 28 144 3.2 12.9 0.00 0.84 0.84 80 1015.7
20260905143801 28 122 3.2 12.9 0.00 0.84 0.84 81 1015.7
20260905143301 27 355 4.8 12.9 0.00 0.84 0.84 81 1015.8
20260905143141 27 99 6.4 12.9 0.00 0.84 0.84 83 1015.8
20260905142301 27 152 1.6 9.7 0.00 0.84 0.84 86 1016.0
20260905141800 26 64 3.2 9.7 0.00 0.84 0.84 88 1015.7
20260905141301 26 78 1.6 9.7 0.00 0.84 0.84 87 1015.6
20260905140802 26 23 1.6 11.3 0.00 0.84 0.84 90 1015.8
20260905140637 26 32 3.2 16.1 0.00 0.84 0.84 89 1015.9
20260905135801 25 49 4.8 16.1 0.00 0.84 0.84 89 1015.8
20260905135300 25 49 4.8 16.1 0.00 0.84 0.84 89 1016.0
20260905134800 25 38 3.2 9.7 0.00 0.84 0.84 90 1015.9
20260905134300 26 331 1.6 3.2 0.00 0.84 0.84 91 1015.4
20260905133804 26 331 0.0 0.0 0.00 0.84 0.84 91 1015.4
20260905133302 26 331 0.0 0.0 0.03 0.84 0.84 92 1015.3
20260905132805 25 331 0.0 1.6 0.03 0.84 0.84 92 1015.4
20260905132301 25 331 0.0 3.2 0.08 0.84 0.84 93 1015.6
20260905131803 25 331 0.0 3.2 0.10 0.84 0.84 94 1015.6
20260905131301 25 331 1.6 3.2 0.13 0.84 0.84 94 1015.6
20260905130801 25 331 0.0 0.0 0.18 0.84 0.84 95 1015.4
20260905130302 24 331 0.0 1.6 0.23 0.84 0.84 95 1015.4
20260905125801 24 331 0.0 3.2 0.30 0.56 0.84 95 1015.4
20260905125305 23 331 1.6 3.2 0.36 0.56 0.84 96 1015.3
20260905124800 23 331 0.0 0.0 0.43 0.56 0.84 95 1015.3
20260905124636 22 331 0.0 0.0 0.51 0.56 0.84 94 1015.2
20260905123806 22 331 0.0 0.0 0.56 0.56 0.84 94 1015.2
20260905123302 22 331 0.0 1.6 0.56 0.56 0.81 93 1015.1
20260905122804 22 331 0.0 1.6 0.58 0.56 0.79 93 1015.1
20260905122301 22 331 0.0 1.6 0.58 0.56 0.76 93 1015.1
20260905121802 22 294 0.0 0.0 0.58 0.56 0.74 93 1015.0
20260905121627 22 294 0.0 0.0 0.58 0.56 0.69 93 1015.0
20260905120803 22 294 0.0 1.6 0.56 0.56 0.64 92 1015.0
20260905120632 22 294 0.0 3.2 0.53 0.56 0.58 92 1015.0
20260905115804 22 78 1.6 4.8 0.48 0.08 0.53 92 1015.0
20260905115636 22 290 3.2 4.8 0.46 0.08 0.46 91 1014.9
20260905114805 22 273 0.0 0.0 0.41 0.08 0.41 91 1015.1
20260905114302 22 273 0.0 3.2 0.33 0.08 0.33 91 1015.1
20260905113801 22 273 1.6 3.2 0.28 0.08 0.28 91 1015.1
20260905113259 22 273 1.6 3.2 0.25 0.08 0.25 91 1015.0
20260905112755 22 273 1.6 9.7 0.23 0.08 0.20 90 1015.0
20260905112619 22 273 3.2 16.1 0.18 0.08 0.18 90 1014.9
20260905111947 22 265 6.4 19.3 0.13 0.08 0.13 89 1015.0
20260905111852 22 215 6.4 19.3 0.15 0.08 0.15 89 1014.8
20260905110730 23 143 9.7 20.9 0.10 0.08 0.10 89 1015.1
20260905110231 23 277 11.3 20.9 0.08 0.08 0.08 89 1015.3
20260905110100 23 333 9.7 40.2 0.05 0.00 0.05 89 1015.2
20260905105228 23 305 25.7 40.2 0.03 0.00 0.00 89 1014.9
20260905104729 23 306 3.2 12.9 0.00 0.00 0.00 94 1014.8
20260905104601 23 291 1.6 4.8 0.00 0.00 0.00 94 1014.7
20260905104053 22 291 3.2 4.8 0.00 0.00 0.00 94 1014.7
20260905103231 22 101 0.0 0.0 0.00 0.00 0.00 94 1014.4
20260905103042 22 101 0.0 0.0 0.00 0.00 0.00 93 1014.2
20260905102229 22 101 0.0 0.0 0.00 0.00 0.00 93 1014.2
20260905101728 22 101 0.0 0.0 0.00 0.00 0.00 93 1014.2
20260905101227 22 101 0.0 0.0 0.00 0.00 0.00 93 1014.2
20260905100723 22 101 0.0 0.0 0.00 0.00 0.00 93 1014.3